DW8937 Tallinn EE current weather conditions

sailwx.info

Wind from 045 at 2 knots gusting 5

Air temperature 23.3° C
Dewpoint 16.1° C

Last reported at 2019-Jul-23 10:02 UTC.
Time now 2019-Jul-23 11:07 UTC

Location: N 59°30' E 024°52'.
View on Google Maps.

See reports from other nearby stations

  
Tides and Currents Weather Stations Pressure Air Temp Water Temp Dewpoint Dewpoint Depression Visibility Wind Speed Wind Dir Waves Ship Positions
date/time (UTC)wind fromknots sea level pressurealtimeterstation pressurevisibilityair tempwater tempwave heightnotes
2019-Jul-23 10:02 045 2 gusting 5 23.3
2019-Jul-23 09:57 24.4
2019-Jul-23 09:52 005 2 gusting 6 24.4
2019-Jul-23 09:47 005 2 gusting 6 23.9
2019-Jul-23 09:42 005 3 gusting 6 23.9
2019-Jul-23 09:37 005 3 gusting 6 24.4
2019-Jul-23 09:32 005 3 gusting 6 23.9
2019-Jul-23 09:27 350 2 gusting 6 24.4
2019-Jul-23 09:22 034 2 gusting 6 23.9
2019-Jul-23 09:17 349 2 gusting 5 24.4
2019-Jul-23 09:12 349 2 gusting 6 25.0
2019-Jul-23 09:07 350 2 gusting 6 25.0
2019-Jul-23 09:02 350 2 gusting 6 24.4
2019-Jul-23 08:57 355 2 gusting 5 24.4
2019-Jul-23 08:52 015 1 gusting 6 24.4
2019-Jul-23 08:47 024 2 gusting 6 23.9
2019-Jul-23 08:42 024 2 gusting 6 23.9
2019-Jul-23 08:37 019 1 gusting 5 23.9
2019-Jul-23 08:32 024 1 gusting 4 23.3
2019-Jul-23 08:27 025 0 gusting 4 23.3
2019-Jul-23 08:22 025 0 gusting 3 23.3
2019-Jul-23 08:17 025 0 gusting 3 23.3
2019-Jul-23 08:12 025 1 gusting 3 23.9
2019-Jul-23 08:07 025 1 gusting 3 22.8
2019-Jul-23 08:02 025 1 gusting 4 23.3
2019-Jul-23 07:57 025 1 gusting 5 22.8
2019-Jul-23 07:52 024 2 gusting 5 22.8
2019-Jul-23 07:47 024 2 gusting 5 22.8
2019-Jul-23 07:42 026 1 gusting 5 23.3
2019-Jul-23 07:37 049 0 gusting 3 23.3
2019-Jul-23 07:32 049 0 gusting 4 22.8
2019-Jul-23 07:27 049 0 gusting 4 22.2
2019-Jul-23 07:22 049 0 gusting 4 22.2
2019-Jul-23 07:17 049 1 gusting 4 21.7
2019-Jul-23 07:12 049 1 gusting 3 21.7
2019-Jul-23 07:07 049 0 gusting 3 21.7
2019-Jul-23 07:02 050 1 gusting 3 21.7
2019-Jul-23 06:57 050 0 gusting 4 21.7
2019-Jul-23 06:52 050 1 gusting 4 21.7
2019-Jul-23 06:47 050 1 gusting 4 21.7
2019-Jul-23 06:42 005 0 gusting 2 22.2
2019-Jul-23 06:37 005 0 gusting 2 22.2
2019-Jul-23 06:32 005 0 gusting 3 21.7
2019-Jul-23 06:27 005 0 gusting 3 21.7
2019-Jul-23 06:22 005 0 gusting 3 21.7
2019-Jul-23 06:17 005 0 gusting 4 21.1
2019-Jul-23 06:12 005 1 gusting 4 21.1
2019-Jul-23 06:07 005 1 gusting 4 20.6
2019-Jul-23 06:02 005 0 gusting 4 21.1
2019-Jul-23 05:57 005 0 gusting 6 21.1
2019-Jul-23 05:52 005 1 gusting 6 20.6
2019-Jul-23 05:47 005 1 gusting 6 21.1
2019-Jul-23 05:42 005 0 gusting 3 20.6
2019-Jul-23 05:37 005 1 gusting 5 20.6
2019-Jul-23 05:32 005 0 gusting 5 20.6
2019-Jul-23 05:27 005 0 gusting 5 20.0
2019-Jul-23 05:22 20.0
2019-Jul-23 05:17 20.0
2019-Jul-23 05:12 355 1 gusting 5 20.0
2019-Jul-23 05:07 355 1 gusting 4 19.4
2019-Jul-23 05:02 348 1 gusting 4 19.4
2019-Jul-23 04:57 346 0 gusting 4 19.4
2019-Jul-23 04:52 346 0 gusting 3 19.4
2019-Jul-23 04:47 346 1 gusting 4 19.4
2019-Jul-23 04:42 346 1 gusting 4 19.4
2019-Jul-23 04:37 346 1 gusting 4 18.9
2019-Jul-23 04:32 346 1 gusting 4 18.9
2019-Jul-23 04:27 346 0 gusting 4 18.9
2019-Jul-23 04:22 346 1 gusting 4 18.3
2019-Jul-23 04:17 346 1 gusting 4 18.3
2019-Jul-23 04:12 346 1 gusting 4 18.3
2019-Jul-23 04:07 346 1 gusting 4 18.3
2019-Jul-23 04:02 346 1 gusting 5 18.3
2019-Jul-23 03:57 346 2 gusting 5 18.3
2019-Jul-23 03:52 346 2 gusting 5 17.8
2019-Jul-23 03:47 346 2 gusting 5 17.8
2019-Jul-23 03:42 346 3 gusting 5 17.8
2019-Jul-23 03:37 346 3 gusting 5 17.8
2019-Jul-23 03:32 346 3 gusting 5 17.2
2019-Jul-23 03:27 346 2 gusting 5 17.2
2019-Jul-23 03:22 323 1 gusting 5 17.2
2019-Jul-23 03:17 322 2 gusting 5 17.2
2019-Jul-23 03:12 322 2 gusting 3 17.2
2019-Jul-23 03:07 319 1 gusting 3 16.7
2019-Jul-23 03:02 319 1 gusting 2 16.7
2019-Jul-23 02:57 319 1 gusting 2 16.7
2019-Jul-23 02:52 319 0 gusting 2 16.1
2019-Jul-23 02:47 319 0 gusting 2 16.1
2019-Jul-23 02:42 319 0 gusting 1 16.1
2019-Jul-23 02:37 319 16.1
2019-Jul-23 02:32 319 16.1
2019-Jul-23 02:27 319 16.1
2019-Jul-23 02:22 319 16.1
2019-Jul-23 02:17 319 16.1
2019-Jul-23 02:12 319 0 gusting 3 16.1
2019-Jul-23 02:07 319 1 gusting 3 16.1
2019-Jul-23 02:02 319 1 gusting 3 16.1
2019-Jul-23 01:57 319 0 gusting 3 16.1
2019-Jul-23 01:52 319 0 gusting 4 16.1
2019-Jul-23 01:47 319 0 gusting 4 16.1
2019-Jul-23 01:42 319 1 gusting 4 16.1
2019-Jul-23 01:37 319 2 gusting 4 16.7
2019-Jul-23 01:32 319 1 gusting 5 16.7
2019-Jul-23 01:27 319 2 gusting 6 16.7
2019-Jul-23 01:22 317 3 gusting 6 16.7
2019-Jul-23 01:17 317 2 gusting 6 16.7
2019-Jul-23 01:12 315 2 gusting 4 16.7
2019-Jul-23 01:07 314 2 gusting 4 16.7
2019-Jul-23 01:02 314 1 gusting 3 16.1
2019-Jul-23 00:57 314 1 gusting 3 16.1
2019-Jul-23 00:52 314 0 gusting 3 16.1
2019-Jul-23 00:47 314 0 gusting 2 16.1
2019-Jul-23 00:42 314 0 gusting 4 16.1
2019-Jul-23 00:37 314 1 gusting 4 16.1
2019-Jul-23 00:32 314 1 gusting 4 16.1
2019-Jul-23 00:27 314 1 gusting 3 16.1
2019-Jul-23 00:22 314 0 gusting 3 16.1
2019-Jul-23 00:17 314 1 gusting 4 16.1
2019-Jul-23 00:12 314 1 gusting 4 16.1
2019-Jul-23 00:07 314 1 gusting 3 16.1
2019-Jul-23 00:02 314 0 gusting 2 16.1
2019-Jul-22 23:57 314 0 gusting 2 16.1
2019-Jul-22 23:52 314 0 gusting 2 16.1
2019-Jul-22 23:47 314 0 gusting 2 16.1
2019-Jul-22 23:42 314 0 gusting 1 16.1
2019-Jul-22 23:37 314 16.1
2019-Jul-22 23:32 314 16.1
2019-Jul-22 23:27 314 0 gusting 2 16.1
2019-Jul-22 23:22 314 0 gusting 2 16.1
2019-Jul-22 23:17 314 0 gusting 1 16.1
2019-Jul-22 23:12 314 0 gusting 1 16.1
2019-Jul-22 23:07 314 16.1
2019-Jul-22 23:02 314 0 gusting 2 16.1
2019-Jul-22 22:57 314 0 gusting 2 16.1
2019-Jul-22 22:52 314 0 gusting 3 16.1
2019-Jul-22 22:47 314 1 gusting 3 16.1
2019-Jul-22 22:42 314 1 gusting 3 16.1
2019-Jul-22 22:37 314 0 gusting 4 16.1
2019-Jul-22 22:32 314 1 gusting 4 16.7
2019-Jul-22 22:27 314 1 gusting 4 16.7
2019-Jul-22 22:22 314 1 gusting 3 16.7
2019-Jul-22 22:17 314 1 gusting 3 16.7
2019-Jul-22 22:12 314 0 gusting 3 16.7
2019-Jul-22 22:07 314 0 gusting 4 16.7
2019-Jul-22 22:02 314 1 gusting 4 16.7
2019-Jul-22 21:57 314 1 gusting 4 16.7
2019-Jul-22 21:52 314 1 gusting 2 16.7
2019-Jul-22 21:47 314 1 gusting 2 16.1
2019-Jul-22 21:42 314 0 gusting 2 16.1
2019-Jul-22 21:37 314 16.1
2019-Jul-22 21:32 314 16.1
2019-Jul-22 21:27 314 0 gusting 2 16.1
2019-Jul-22 21:22 314 0 gusting 2 16.7
2019-Jul-22 21:17 314 0 gusting 1 16.7
2019-Jul-22 21:12 314 0 gusting 2 16.7
2019-Jul-22 21:07 314 0 gusting 2 16.7
2019-Jul-22 21:02 314 0 gusting 2 16.7
2019-Jul-22 20:57 314 0 gusting 2 16.7
2019-Jul-22 20:52 314 0 gusting 2 16.7
2019-Jul-22 20:47 314 0 gusting 2 16.7
2019-Jul-22 20:42 314 0 gusting 2 16.7
2019-Jul-22 20:37 314 0 gusting 2 16.7
2019-Jul-22 20:32 314 0 gusting 2 16.7
2019-Jul-22 20:27 314 0 gusting 2 16.7
2019-Jul-22 20:22 314 0 gusting 4 16.7
2019-Jul-22 20:17 314 1 gusting 4 17.2
2019-Jul-22 20:12 314 1 gusting 4 17.2
2019-Jul-22 20:07 314 2 gusting 5 17.2
2019-Jul-22 20:02 314 1 gusting 5 17.2
2019-Jul-22 19:57 314 1 gusting 5 17.2
2019-Jul-22 19:52 314 1 gusting 4 17.2
2019-Jul-22 19:47 314 2 gusting 4 17.2
2019-Jul-22 19:42 314 2 gusting 4 17.2
2019-Jul-22 19:37 313 2 gusting 4 17.2
2019-Jul-22 19:32 313 1 gusting 5 17.2
2019-Jul-22 19:27 313 1 gusting 5 17.2
2019-Jul-22 19:22 313 1 gusting 5 17.2
2019-Jul-22 19:17 313 1 gusting 3 17.2
2019-Jul-22 19:12 313 1 gusting 3 17.2
2019-Jul-22 19:07 313 0 gusting 2 17.2
2019-Jul-22 19:02 313 17.2
2019-Jul-22 18:57 313 0 gusting 2 17.2
2019-Jul-22 18:52 313 0 gusting 4 17.2
2019-Jul-22 18:47 313 0 gusting 4 17.2
2019-Jul-22 18:42 313 0 gusting 2 17.2
2019-Jul-22 18:37 313 0 gusting 3 17.2
2019-Jul-22 18:32 313 0 gusting 3 17.8
2019-Jul-22 18:27 313 1 gusting 4 17.8
2019-Jul-22 18:22 313 1 gusting 4 17.8
2019-Jul-22 18:17 313 2 gusting 4 17.8
2019-Jul-22 18:12 312 2 gusting 3 17.8
2019-Jul-22 18:07 312 1 gusting 3 17.8
2019-Jul-22 18:02 312 0 gusting 2 17.8
2019-Jul-22 17:57 312 0 gusting 4 17.8
2019-Jul-22 17:52 312 0 gusting 4 17.8
2019-Jul-22 17:47 312 1 gusting 4 17.8
2019-Jul-22 17:42 312 1 gusting 3 17.8
2019-Jul-22 17:37 312 1 gusting 3 17.8
2019-Jul-22 17:32 312 2 gusting 4 17.8
2019-Jul-22 17:27 312 1 gusting 5 17.8
2019-Jul-22 17:22 312 2 gusting 5 17.8
2019-Jul-22 17:17 312 3 gusting 5 17.8
2019-Jul-22 17:12 313 3 gusting 6 17.8
2019-Jul-22 17:07 313 3 gusting 6 17.8
2019-Jul-22 17:02 313 2 gusting 6 17.8
2019-Jul-22 16:57 313 2 gusting 5 17.8
2019-Jul-22 16:52 265 1 gusting 6 17.8
2019-Jul-22 16:47 265 2 gusting 6 17.8
2019-Jul-22 16:42 265 3 gusting 6 17.8
2019-Jul-22 16:37 265 4 gusting 6 17.8
2019-Jul-22 16:32 264 3 gusting 6 18.3
2019-Jul-22 16:27 264 2 gusting 6 18.3
2019-Jul-22 16:22 264 3 gusting 6 18.3
2019-Jul-22 16:17 265 3 gusting 6 18.3
2019-Jul-22 16:12 267 1 gusting 4 18.9
2019-Jul-22 16:07 269 1 gusting 4 18.9
2019-Jul-22 16:02 269 2 gusting 4 18.9
2019-Jul-22 15:57 267 1 gusting 3 18.9
2019-Jul-22 15:52 267 1 gusting 3 18.9
2019-Jul-22 15:47 267 0 gusting 2 18.9
2019-Jul-22 15:42 267 18.9
2019-Jul-22 15:37 267 18.9
2019-Jul-22 15:32 267 18.9
2019-Jul-22 15:27 267 0 gusting 2 18.9
2019-Jul-22 15:22 267 1 gusting 2 18.9
2019-Jul-22 15:17 267 1 gusting 2 18.9
2019-Jul-22 15:12 267 0 gusting 2 18.9
2019-Jul-22 15:07 267 0 gusting 2 18.9
2019-Jul-22 15:02 267 0 gusting 2 18.9
2019-Jul-22 14:57 267 0 gusting 2 18.9
2019-Jul-22 14:52 267 18.9
2019-Jul-22 14:47 261 18.3
2019-Jul-22 14:42 261 18.3
2019-Jul-22 14:37 261 0 gusting 3 18.3
2019-Jul-22 14:32 261 0 gusting 3 18.3
2019-Jul-22 14:27 261 1 gusting 4 18.3
2019-Jul-22 14:22 261 1 gusting 4 18.3
2019-Jul-22 14:17 261 2 gusting 4 18.3
2019-Jul-22 14:12 261 1 gusting 3 18.3
2019-Jul-22 14:07 259 0 gusting 3 18.3
2019-Jul-22 14:02 259 18.3
2019-Jul-22 13:57 259 18.3
2019-Jul-22 13:52 259 18.3
2019-Jul-22 13:47 259 0 gusting 3 18.3
2019-Jul-22 13:42 259 0 gusting 3 18.3
2019-Jul-22 13:37 259 1 gusting 5 18.3
2019-Jul-22 13:32 259 1 gusting 5 18.3
2019-Jul-22 13:27 259 1 gusting 5 18.3
2019-Jul-22 13:22 259 2 gusting 5 18.3
2019-Jul-22 13:17 222 2 gusting 5 18.3
2019-Jul-22 13:12 089 1 gusting 5 18.9
2019-Jul-22 13:07 086 1 gusting 4 18.9
2019-Jul-22 13:02 085 0 gusting 2 18.9
2019-Jul-22 12:57 085 0 gusting 2 18.9
2019-Jul-22 12:52 085 0 gusting 2 18.9
2019-Jul-22 12:47 085 18.9
2019-Jul-22 12:42 085 18.9
2019-Jul-22 12:37 085 18.9
2019-Jul-22 12:32 085 18.3
2019-Jul-22 12:27 085 18.3
2019-Jul-22 12:22 085 18.9
2019-Jul-22 12:17 086 18.9
2019-Jul-22 12:12 085 18.9
2019-Jul-22 12:07 085 18.9
2019-Jul-22 12:02 085 18.9
2019-Jul-22 11:57 085 0 gusting 4 18.9
2019-Jul-22 11:52 085 0 gusting 4 18.9
2019-Jul-22 11:47 085 0 gusting 4 18.9
2019-Jul-22 11:42 085 18.9
2019-Jul-22 11:37 085 18.9
2019-Jul-22 11:32 085 18.9
2019-Jul-22 11:27 085 18.9
2019-Jul-22 11:22 085 18.9
2019-Jul-22 11:17 085 0 gusting 4 18.9
2019-Jul-22 11:12 086 0 gusting 4 18.9
2019-Jul-22 11:07 085 18.3
2019-Jul-22 11:02 085 0 gusting 6 18.9
2019-Jul-22 10:57 085 2 gusting 6 18.9
2019-Jul-22 10:52 085 3 gusting 6 18.9
2019-Jul-22 10:47 086 3 gusting 6 18.9
2019-Jul-22 10:42 084 3 gusting 6 18.9
2019-Jul-22 10:37 085 3 gusting 6 18.9
2019-Jul-22 10:32 084 2 gusting 5 19.4
2019-Jul-22 10:27 085 1 gusting 5 19.4
2019-Jul-22 10:22 085 1 gusting 5 19.4
2019-Jul-22 10:17 085 1 gusting 5 18.9
2019-Jul-22 10:12 085 2 gusting 5 18.9
2019-Jul-22 10:07 086 2 gusting 4 18.9
2019-Jul-22 10:02 086 1 gusting 4 18.9
2019-Jul-22 09:57 086 1 gusting 4 18.9
2019-Jul-22 09:52 086 1 gusting 4 18.3
2019-Jul-22 09:47 086 1 gusting 5 18.3
2019-Jul-22 09:42 086 2 gusting 5 18.3
2019-Jul-22 09:37 086 2 gusting 5 18.3
2019-Jul-22 09:32 086 2 gusting 5 18.3
2019-Jul-22 09:27 085 2 gusting 5 18.3
2019-Jul-22 09:22 084 1 gusting 5 18.9
2019-Jul-22 09:17 081 18.9
2019-Jul-22 09:12 080 0 gusting 2 18.9
2019-Jul-22 09:07 080 18.9
2019-Jul-22 09:02 080 0 gusting 4 18.9
2019-Jul-22 08:57 080 0 gusting 4 18.9
2019-Jul-22 08:52 080 0 gusting 4 18.9
2019-Jul-22 08:47 080 0 gusting 2 18.3
2019-Jul-22 08:42 080 0 gusting 2 18.3
2019-Jul-22 08:37 080 0 gusting 2 18.3
2019-Jul-22 08:32 080 0 gusting 2 17.8
2019-Jul-22 08:27 080 17.8
2019-Jul-22 08:22 080 0 gusting 4 17.8
2019-Jul-22 08:17 080 0 gusting 4 17.8
2019-Jul-22 08:12 080 0 gusting 4 17.8
2019-Jul-22 08:07 080 1 gusting 5 17.8
2019-Jul-22 08:02 080 2 gusting 5 17.8
2019-Jul-22 07:57 080 2 gusting 5 17.8
2019-Jul-22 07:52 080 1 gusting 3 17.8
2019-Jul-22 07:47 167 0 gusting 2 17.8
2019-Jul-22 07:42 167 17.8
2019-Jul-22 07:37 167 17.8
2019-Jul-22 07:32 167 17.8
2019-Jul-22 07:27 167 17.8
2019-Jul-22 07:22 167 0 gusting 6 17.8
2019-Jul-22 07:17 167 2 gusting 6 17.8
2019-Jul-22 07:12 167 2 gusting 3 17.8
2019-Jul-22 07:07 167 0 gusting 3 17.8
2019-Jul-22 07:02 167 0 gusting 2 17.8
2019-Jul-22 06:57 167 1 gusting 2 17.8
2019-Jul-22 06:52 167 1 gusting 2 17.8
2019-Jul-22 06:47 167 0 gusting 5 17.8
2019-Jul-22 06:42 167 1 gusting 5 17.8
2019-Jul-22 06:37 167 1 gusting 5 18.3
2019-Jul-22 06:32 167 1 gusting 5 18.3
2019-Jul-22 06:27 167 1 gusting 4 18.3
2019-Jul-22 06:22 167 1 gusting 4 18.9
2019-Jul-22 06:17 167 2 gusting 6 18.9
2019-Jul-22 06:12 167 2 gusting 6 18.9
2019-Jul-22 06:07 167 2 gusting 6 19.4
2019-Jul-22 06:02 167 1 gusting 4 19.4
2019-Jul-22 05:57 167 2 gusting 4 19.4
2019-Jul-22 05:52 167 1 gusting 4 19.4
2019-Jul-22 05:47 167 0 gusting 3 19.4
2019-Jul-22 05:42 167 0 gusting 3 19.4
2019-Jul-22 05:37 167 0 gusting 3 19.4
2019-Jul-22 05:32 167 0 gusting 3 19.4
2019-Jul-22 05:27 167 0 gusting 4 19.4
2019-Jul-22 05:22 167 1 gusting 6 19.4
2019-Jul-22 05:17 167 2 gusting 6 20.0
2019-Jul-22 05:12 167 2 gusting 6 20.0
2019-Jul-22 05:07 157 1 gusting 4 20.0
2019-Jul-22 05:02 157 1 gusting 3 20.0
2019-Jul-22 04:57 157 1 gusting 3 20.0
2019-Jul-22 04:52 157 1 gusting 4 20.6
2019-Jul-22 04:47 157 1 gusting 4 20.6
2019-Jul-22 04:42 157 2 gusting 6 20.6
2019-Jul-22 04:37 157 2 gusting 6 20.6
2019-Jul-22 04:32 156 2 gusting 4 20.6
2019-Jul-22 04:27 156 2 gusting 4 20.0
2019-Jul-22 04:22 156 1 gusting 4 20.0
2019-Jul-22 04:17 156 1 gusting 4 19.4
2019-Jul-22 04:12 156 1 gusting 5 19.4
2019-Jul-22 04:07 156 2 gusting 5 18.9
2019-Jul-22 04:02 156 2 gusting 6 18.9
2019-Jul-22 03:57 156 2 gusting 6 18.3
2019-Jul-22 03:52 156 3 gusting 6 17.8
2019-Jul-22 03:47 156 3 gusting 6 17.8
2019-Jul-22 03:42 155 3 gusting 6 17.2
2019-Jul-22 03:37 155 3 gusting 6 17.2
2019-Jul-22 03:32 155 3 gusting 6 17.2
2019-Jul-22 03:27 155 3 gusting 6 17.2
2019-Jul-22 03:22 155 3 gusting 6 16.7
2019-Jul-22 03:17 155 3 gusting 6 16.7
2019-Jul-22 03:12 155 3 gusting 7 16.7
2019-Jul-22 03:07 173 3 gusting 7 16.7
2019-Jul-22 03:02 173 3 gusting 7 16.7
2019-Jul-22 02:57 170 3 gusting 7 16.7
2019-Jul-22 02:52 175 4 gusting 7 16.1
2019-Jul-22 02:47 163 4 gusting 7 16.1
2019-Jul-22 02:42 155 4 gusting 9 16.1
2019-Jul-22 02:37 152 4 gusting 9 16.1
2019-Jul-22 02:32 150 4 gusting 7 16.7
2019-Jul-22 02:27 168 4 gusting 7 16.7
2019-Jul-22 02:22 155 4 gusting 8 16.7
2019-Jul-22 02:17 157 4 gusting 8 16.7
2019-Jul-22 02:12 153 4 gusting 8 16.7
2019-Jul-22 02:07 146 4 gusting 8 16.7
2019-Jul-22 02:02 144 5 gusting 8 16.7
2019-Jul-22 01:57 136 5 gusting 8 16.7
2019-Jul-22 01:52 142 4 gusting 7 16.7
2019-Jul-22 01:47 132 4 gusting 7 16.7
2019-Jul-22 01:42 138 4 gusting 7 16.7
2019-Jul-22 01:37 132 4 gusting 7 16.7
2019-Jul-22 01:32 139 4 gusting 7 17.2
2019-Jul-22 01:27 135 4 gusting 7 17.2
2019-Jul-22 01:22 132 4 gusting 6 17.2
2019-Jul-22 01:17 153 3 gusting 7 17.2
2019-Jul-22 01:12 138 4 gusting 7 17.2
2019-Jul-22 01:07 133 4 gusting 7 17.2
2019-Jul-22 01:02 124 4 gusting 6 17.2
2019-Jul-22 00:57 136 3 gusting 6 17.2
2019-Jul-22 00:52 124 3 gusting 6 17.2
2019-Jul-22 00:47 125 3 gusting 6 17.8
2019-Jul-22 00:42 126 4 gusting 6 17.8
2019-Jul-22 00:37 130 3 gusting 6 17.8
2019-Jul-22 00:32 130 3 gusting 6 17.8
2019-Jul-22 00:27 130 4 gusting 6 17.8
2019-Jul-22 00:22 130 4 gusting 6 17.8
2019-Jul-22 00:17 126 4 gusting 8 17.8
2019-Jul-22 00:12 155 4 gusting 8 17.8
2019-Jul-22 00:07 139 4 gusting 8 17.8
2019-Jul-22 00:02 140 3 gusting 7 17.8
2019-Jul-21 23:57 138 4 gusting 7 17.8
2019-Jul-21 23:52 152 3 gusting 7 17.8
2019-Jul-21 23:47 142 4 gusting 8 17.8
2019-Jul-21 23:42 131 4 gusting 8 17.8
2019-Jul-21 23:37 128 3 gusting 6 17.8
2019-Jul-21 23:32 134 2 gusting 5 17.8
2019-Jul-21 23:27 134 2 gusting 5 17.8
2019-Jul-21 23:22 134 3 gusting 5 17.8
2019-Jul-21 23:17 127 3 gusting 5 17.8
2019-Jul-21 23:12 128 2 gusting 4 17.8
2019-Jul-21 23:07 128 2 gusting 6 17.8
2019-Jul-21 23:02 128 3 gusting 6 17.8
2019-Jul-21 22:57 128 3 gusting 6 17.8
2019-Jul-21 22:52 128 2 gusting 6 17.8
2019-Jul-21 22:47 127 2 gusting 4 17.8
2019-Jul-21 22:42 126 2 gusting 4 17.8
2019-Jul-21 22:37 126 1 gusting 6 17.8
2019-Jul-21 22:32 127 2 gusting 6 17.8
2019-Jul-21 22:27 127 3 gusting 6 17.8
2019-Jul-21 22:22 127 3 gusting 6 17.8
2019-Jul-21 22:17 134 2 gusting 6 18.3
2019-Jul-21 22:12 134 2 gusting 6 18.3
2019-Jul-21 22:07 134 2 gusting 6 18.3
2019-Jul-21 22:02 103 2 gusting 6 18.3
2019-Jul-21 21:57 103 2 gusting 4 18.3
2019-Jul-21 21:52 103 2 gusting 6 18.3
2019-Jul-21 21:47 103 2 gusting 6 18.3
2019-Jul-21 21:42 103 3 gusting 6 18.3
2019-Jul-21 21:37 103 3 gusting 6 18.3
2019-Jul-21 21:32 101 2 gusting 6 18.9
2019-Jul-21 21:27 101 2 gusting 5 18.9
2019-Jul-21 21:22 101 2 gusting 5 18.9
2019-Jul-21 21:17 101 2 gusting 5 19.4
2019-Jul-21 21:12 101 2 gusting 5 19.4
2019-Jul-21 21:07 101 2 gusting 6 19.4
2019-Jul-21 21:02 101 2 gusting 6 19.4
2019-Jul-21 20:57 101 2 gusting 6 19.4
2019-Jul-21 20:52 102 2 gusting 4 19.4
2019-Jul-21 20:47 102 1 gusting 3 20.0
2019-Jul-21 20:42 102 1 gusting 3 20.0
2019-Jul-21 20:37 102 1 gusting 3 20.0
2019-Jul-21 20:32 102 1 gusting 3 20.0
2019-Jul-21 20:27 102 1 gusting 6 20.0
2019-Jul-21 20:22 102 1 gusting 6 20.0
2019-Jul-21 20:17 102 1 gusting 4 20.6
2019-Jul-21 20:12 102 1 gusting 6 20.6
2019-Jul-21 20:07 102 2 gusting 6 20.6
2019-Jul-21 20:02 102 2 gusting 6 20.6
2019-Jul-21 19:57 102 3 gusting 6 20.6
2019-Jul-21 19:52 102 3 gusting 6 21.1
2019-Jul-21 19:47 102 3 gusting 6 21.1
2019-Jul-21 19:42 110 2 gusting 6 21.1
2019-Jul-21 19:37 118 2 gusting 6 21.1
2019-Jul-21 19:32 104 3 gusting 6 21.1
2019-Jul-21 19:27 108 4 gusting 6 21.1
2019-Jul-21 19:22 098 3 gusting 6 21.7
2019-Jul-21 19:17 097 3 gusting 6 21.7
2019-Jul-21 19:12 087 3 gusting 6 21.7
2019-Jul-21 19:07 096 3 gusting 6 21.7
2019-Jul-21 19:02 090 2 gusting 6 21.7
2019-Jul-21 18:57 090 2 gusting 5 21.7
2019-Jul-21 18:52 088 3 gusting 6 22.2
2019-Jul-21 18:47 089 2 gusting 6 22.2
2019-Jul-21 18:42 087 2 gusting 6 22.2
2019-Jul-21 18:37 088 2 gusting 6 22.2
2019-Jul-21 18:32 088 1 gusting 6 22.2
2019-Jul-21 18:27 087 2 gusting 6 22.2
2019-Jul-21 18:22 091 2 gusting 6 22.2
2019-Jul-21 18:17 065 1 gusting 6 22.2
2019-Jul-21 18:12 064 2 gusting 7 22.2
2019-Jul-21 18:07 064 2 gusting 7 22.2
2019-Jul-21 18:02 064 2 gusting 7 22.8
2019-Jul-21 17:57 056 2 gusting 8 22.8
2019-Jul-21 17:52 077 2 gusting 8 22.8
2019-Jul-21 17:47 078 3 gusting 8 22.8
2019-Jul-21 17:42 086 2 gusting 7 22.8
2019-Jul-21 17:37 073 2 gusting 7 22.8
2019-Jul-21 17:32 077 2 gusting 6 22.8
2019-Jul-21 17:27 078 3 gusting 6 22.8
2019-Jul-21 17:22 079 3 gusting 7 22.8
2019-Jul-21 17:17 077 3 gusting 7 22.8
2019-Jul-21 17:12 093 3 gusting 7 22.8
2019-Jul-21 17:07 078 3 gusting 7 23.3
2019-Jul-21 17:02 067 3 gusting 9 23.3
2019-Jul-21 16:57 065 4 gusting 10 23.3
2019-Jul-21 16:52 058 5 gusting 10 23.3
2019-Jul-21 16:47 078 5 gusting 10 23.3
2019-Jul-21 16:42 077 4 gusting 8 23.3
2019-Jul-21 16:37 088 3 gusting 8 23.3
2019-Jul-21 16:32 074 3 gusting 8 23.3
2019-Jul-21 16:27 084 3 gusting 9 23.3
2019-Jul-21 16:22 078 4 gusting 9 23.3
2019-Jul-21 16:17 082 4 gusting 9 23.3
2019-Jul-21 16:12 084 4 gusting 9 22.8
2019-Jul-21 16:07 073 4 gusting 9 23.3
2019-Jul-21 16:02 086 4 gusting 7 23.3
2019-Jul-21 15:57 088 4 gusting 9 22.8
2019-Jul-21 15:52 106 4 gusting 9 23.3
2019-Jul-21 15:47 062 4 gusting 8 23.3
2019-Jul-21 15:42 086 4 gusting 8 23.3
2019-Jul-21 15:37 081 5 gusting 8 23.3
2019-Jul-21 15:32 077 5 gusting 8 22.8
2019-Jul-21 15:27 083 4 gusting 8 22.8
2019-Jul-21 15:22 064 4 gusting 8 22.8
2019-Jul-21 15:17 080 5 gusting 9 22.8
2019-Jul-21 15:12 055 5 gusting 11 22.8
2019-Jul-21 15:07 062 6 gusting 11 22.8
2019-Jul-21 15:02 089 4 gusting 11 23.3
2019-Jul-21 14:57 064 3 gusting 8 23.3
2019-Jul-21 14:52 088 3 gusting 7 23.3
2019-Jul-21 14:47 040 4 gusting 8 23.3
2019-Jul-21 14:42 065 3 gusting 9 23.3
2019-Jul-21 14:37 061 3 gusting 9 23.3
2019-Jul-21 14:32 059 4 gusting 9 23.3
2019-Jul-21 14:27 082 4 gusting 9 23.9
2019-Jul-21 14:22 048 4 gusting 9 23.9
2019-Jul-21 14:17 088 4 gusting 9 23.9
2019-Jul-21 14:12 074 4 gusting 8 24.4
2019-Jul-21 14:07 069 5 gusting 8 24.4
2019-Jul-21 14:02 036 6 gusting 7 24.4
2019-Jul-21 13:57 038 4 gusting 8 24.4
2019-Jul-21 13:52 027 3 gusting 8 25.0
2019-Jul-21 13:47 042 4 gusting 8 25.0
2019-Jul-21 13:42 050 4 gusting 8 24.4
2019-Jul-21 13:37 034 4 gusting 8 24.4
2019-Jul-21 13:32 048 5 gusting 8 24.4
2019-Jul-21 13:27 011 5 gusting 8 24.4
2019-Jul-21 13:22 020 5 gusting 8 24.4
2019-Jul-21 13:17 079 5 gusting 8 25.0
2019-Jul-21 13:12 032 5 gusting 8 25.0
2019-Jul-21 13:07 054 4 gusting 7 24.4
2019-Jul-21 13:02 066 2 gusting 8 25.0
2019-Jul-21 12:57 054 4 gusting 8 24.4
2019-Jul-21 12:52 032 6 gusting 8 24.4
2019-Jul-21 12:47 041 5 gusting 7 24.4
2019-Jul-21 12:42 033 4 gusting 8 24.4
2019-Jul-21 12:37 041 4 gusting 8 24.4
2019-Jul-21 12:32 021 4 gusting 9 24.4
2019-Jul-21 12:27 013 5 gusting 9 24.4
2019-Jul-21 12:22 035 5 gusting 9 24.4
2019-Jul-21 12:17 028 5 gusting 8 25.0
2019-Jul-21 12:12 013 5 gusting 8 24.4
2019-Jul-21 12:07 034 4 gusting 8 25.0
2019-Jul-21 12:02 069 4 gusting 8 25.0
2019-Jul-21 11:57 340 5 gusting 8 25.6
2019-Jul-21 11:52 034 5 gusting 8 25.6
2019-Jul-21 11:47 038 5 gusting 8 25.6
2019-Jul-21 11:42 013 4 gusting 8 25.6
2019-Jul-21 11:37 051 4 gusting 7 25.6
2019-Jul-21 11:32 005 4 gusting 8 25.6
2019-Jul-21 11:27 009 4 gusting 8 26.1
2019-Jul-21 11:22 346 4 gusting 8 26.1
2019-Jul-21 11:17 347 4 gusting 7 25.6
2019-Jul-21 11:12 036 4 gusting 7 24.4
2019-Jul-21 11:07 028 4 gusting 10 24.4
2019-Jul-21 11:02 030 5 gusting 10 25.6